GSAT0216 (GALILEO 20)

Last updated on Thu Dec 18 2025 00:02:35 GMT+0000 (Coordinated Universal Time)

1 43056U 17079B 25350.88008698 .00000053 00000+0 00000+0 0 9990 2 43056 55.1290 226.5236 0002419 322.2527 37.8290 1.70474167 49893
UTC large
Height (km)
Speed (km/s)
/
Latitude / Longitude
Inclination (degrees)
Orbital Period (minutes)
Azimuth
Elevation
Range (km)
Doppler Factor

Next 0 passes for location: London (51.5072 / 0.1276)

Sorry there are no passes over London.